GW4453 Weather Reports


Display with metric or nautical units.
time (UTC)temp
F
wind
direction
speed
MPH
gust
MPH
rain 1hr
in
rain 24hr
in
rain mn
in
humidity
%
barometer
mb
20260504151028 48 352 14.0 18.0 0.00 0.00 0.00 55 1018.7
20260504150525 48 355 12.0 14.0 0.00 0.00 0.00 55 1018.8
20260504140951 46 5 9.0 10.0 0.00 0.00 0.00 62 1018.5
20260504140447 46 7 9.0 10.0 0.00 0.00 0.00 63 1018.5
20260504130412 44 8 8.0 10.0 0.00 0.00 0.00 68 1016.9
20260504110259 31 67 2.0 2.0 0.00 0.00 0.00 81 1014.4
20260504100217 31 204 2.0 2.0 0.00 0.00 0.00 83 1013.7
20260504090140 29 84 0.0 0.0 0.00 0.00 0.00 82 1014.2
20260504081610 31 184 3.0 3.0 0.00 0.00 0.00 79 1013.8
20260504081106 31 77 2.0 2.0 0.00 0.00 0.00 78 1013.9
20260504080603 32 121 0.0 0.0 0.00 0.00 0.00 78 1013.8
20260504050415 38 244 1.0 1.0 0.00 0.00 0.00 64 1014.3
20260504045912 39 245 0.0 1.0 0.00 0.00 0.00 62 1014.4
20260504045408 40 245 1.0 1.0 0.00 0.00 0.00 59 1014.7
20260504044904 41 245 1.0 1.0 0.00 0.00 0.00 56 1014.7
20260504044402 41 246 1.0 1.0 0.00 0.00 0.00 55 1014.6
20260504043859 41 245 2.0 2.0 0.00 0.00 0.00 57 1014.5
20260504043356 41 245 3.0 3.0 0.00 0.00 0.00 56 1014.6
20260504042854 39 246 2.0 2.0 0.00 0.00 0.00 59 1014.7
20260504042349 38 244 1.0 2.0 0.00 0.00 0.00 62 1014.7
20260504041846 39 244 5.0 5.0 0.00 0.00 0.00 63 1014.7
20260504041342 40 56 0.0 0.0 0.00 0.00 0.00 60 1014.6
20260504040838 40 65 0.0 1.0 0.00 0.00 0.00 58 1014.7
20260504040336 41 61 0.0 0.0 0.00 0.00 0.00 56 1014.9
20260504035832 43 51 1.0 1.0 0.00 0.00 0.00 52 1015.1
20260504035330 43 64 2.0 2.0 0.00 0.00 0.00 53 1015.1
20260504034827 42 64 0.0 1.0 0.00 0.00 0.00 50 1015.2
20260504034325 42 79 0.0 0.0 0.00 0.00 0.00 52 1015.1
20260504033821 44 101 1.0 1.0 0.00 0.00 0.00 49 1014.7
20260504033319 45 131 1.0 1.0 0.00 0.00 0.00 48 1015.2
20260504032815 46 126 2.0 2.0 0.00 0.00 0.00 47 1014.9
20260504032313 46 116 1.0 1.0 0.00 0.00 0.00 46 1014.9
20260504031809 45 86 0.0 0.0 0.00 0.00 0.00 47 1014.6
20260504031307 44 88 0.0 0.0 0.00 0.00 0.00 48 1015.1
20260504030803 45 107 0.0 0.0 0.00 0.00 0.00 49 1014.8
20260504030300 45 97 0.0 0.0 0.00 0.00 0.00 49 1014.7
20260504025756 46 88 0.0 0.0 0.00 0.00 0.00 47 1014.8
20260504025253 46 78 0.0 0.0 0.00 0.00 0.00 47 1014.7
20260504024750 46 97 0.0 0.0 0.00 0.00 0.00 49 1014.6
20260504024247 45 93 1.0 1.0 0.00 0.00 0.00 49 1014.5
20260504023744 48 109 1.0 2.0 0.00 0.00 0.00 47 1014.6
20260504023240 51 265 1.0 1.0 0.00 0.00 0.00 44 1014.5
20260504022736 55 269 1.0 1.0 0.00 0.00 0.00 39 1014.5
20260504022232 56 8 2.0 2.0 0.00 0.00 0.00 34 1014.0
20260504021729 56 335 0.0 1.0 0.00 0.00 0.00 34 1014.3
20260504021226 57 332 0.0 0.0 0.00 0.00 0.00 34 1014.3
20260504020723 58 314 3.0 3.0 0.00 0.00 0.00 33 1014.4
20260504020220 59 307 2.0 2.0 0.00 0.00 0.00 32 1014.3
20260504015716 59 316 2.0 2.0 0.00 0.00 0.00 32 1014.4
20260504015213 61 292 3.0 3.0 0.00 0.00 0.00 30 1014.3
20260504014708 63 300 3.0 3.0 0.00 0.00 0.00 29 1014.4
20260504014205 64 330 3.0 3.0 0.00 0.00 0.00 28 1014.5
20260504013703 64 315 3.0 3.0 0.00 0.00 0.00 27 1014.4
20260504013200 65 297 4.0 5.0 0.00 0.00 0.00 27 1014.4
20260504012656 67 313 3.0 3.0 0.00 0.00 0.00 26 1014.5
20260504012155 67 18 1.0 1.0 0.00 0.00 0.00 25 1014.3
20260504011652 67 13 1.0 1.0 0.00 0.00 0.00 25 1014.6
20260504011148 67 268 1.0 2.0 0.00 0.00 0.00 25 1014.5
20260504010644 68 338 1.0 2.0 0.00 0.00 0.00 25 1014.7
20260504010139 68 306 5.0 6.0 0.00 0.00 0.00 25 1015.1
20260504005637 68 357 4.0 5.0 0.00 0.00 0.00 24 1015.2
20260504005133 68 299 5.0 7.0 0.00 0.00 0.00 25 1014.9
20260504004632 69 317 2.0 2.0 0.00 0.00 0.00 26 1014.8
20260504004129 69 343 1.0 1.0 0.00 0.00 0.00 26 1015.1
20260504003625 69 282 4.0 6.0 0.00 0.00 0.00 25 1015.4
20260504003121 69 292 3.0 3.0 0.00 0.00 0.00 25 1015.3
20260504002618 69 344 10.0 14.0 0.00 0.00 0.00 25 1014.9
20260504002116 69 344 7.0 8.0 0.00 0.00 0.00 26 1015.1
20260504001614 69 347 5.0 6.0 0.00 0.00 0.00 27 1014.9
20260504001109 69 291 9.0 11.0 0.00 0.00 0.00 27 1015.1
20260504000607 67 358 3.0 3.0 0.00 0.00 0.00 29 1015.3
20260504000104 68 6 2.0 3.0 0.00 0.00 0.00 28 1015.3
20260503235602 70 303 2.0 2.0 0.00 0.00 0.00 27 1015.5
20260503235059 70 354 6.0 6.0 0.00 0.00 0.00 28 1015.2
20260503234556 70 256 1.0 2.0 0.00 0.00 0.00 27 1015.3
20260503234054 70 272 3.0 5.0 0.00 0.00 0.00 27 1015.3
20260503233551 70 344 4.0 5.0 0.00 0.00 0.00 27 1015.4
20260503233047 69 352 6.0 7.0 0.00 0.00 0.00 27 1015.3
20260503232544 69 10 5.0 7.0 0.00 0.00 0.00 29 1015.6
20260503232041 68 339 4.0 5.0 0.00 0.00 0.00 26 1015.5
20260503231539 68 349 4.0 5.0 0.00 0.00 0.00 27 1015.6
20260503231035 68 3 4.0 5.0 0.00 0.00 0.00 27 1015.6
20260503230532 67 344 5.0 6.0 0.00 0.00 0.00 27 1015.3
20260503230030 68 8 4.0 5.0 0.00 0.00 0.00 27 1015.6
20260503225526 71 317 1.0 1.0 0.00 0.00 0.00 26 1015.9
20260503225021 70 5 5.0 7.0 0.00 0.00 0.00 27 1015.6
20260503224520 71 335 7.0 8.0 0.00 0.00 0.00 25 1015.7
20260503224017 69 293 4.0 6.0 0.00 0.00 0.00 26 1015.6
20260503223515 67 299 8.0 10.0 0.00 0.00 0.00 28 1015.9
20260503223010 69 3 5.0 7.0 0.00 0.00 0.00 28 1015.9
20260503222509 70 341 5.0 7.0 0.00 0.00 0.00 26 1016.1
20260503222006 68 339 5.0 6.0 0.00 0.00 0.00 28 1015.9
20260503221504 69 342 9.0 10.0 0.00 0.00 0.00 27 1015.7
20260503221001 69 338 6.0 8.0 0.00 0.00 0.00 27 1015.9
20260503220457 70 336 8.0 9.0 0.00 0.00 0.00 27 1016.1
20260503215954 70 40 5.0 7.0 0.00 0.00 0.00 26 1016.1
20260503215451 70 339 3.0 5.0 0.00 0.00 0.00 26 1016.3
20260503214949 70 340 3.0 5.0 0.00 0.00 0.00 27 1016.5
20260503214447 68 352 4.0 6.0 0.00 0.00 0.00 28 1016.8
20260503213943 69 337 5.0 9.0 0.00 0.00 0.00 29 1016.4
20260503213442 68 337 3.0 3.0 0.00 0.00 0.00 30 1016.6
20260503212937 69 299 4.0 5.0 0.00 0.00 0.00 28 1016.9
20260503212435 69 330 7.0 9.0 0.00 0.00 0.00 30 1016.8
20260503211932 68 341 5.0 8.0 0.00 0.00 0.00 29 1016.8
20260503211430 70 344 5.0 6.0 0.00 0.00 0.00 27 1017.1
20260503210925 70 333 3.0 5.0 0.00 0.00 0.00 28 1017.2
20260503210422 68 277 5.0 7.0 0.00 0.00 0.00 31 1017.2
20260503205916 69 317 6.0 8.0 0.00 0.00 0.00 31 1017.0
20260503205414 69 302 9.0 13.0 0.00 0.00 0.00 28 1017.4
20260503204910 69 286 8.0 9.0 0.00 0.00 0.00 35 1017.4
20260503204408 68 284 9.0 11.0 0.00 0.00 0.00 33 1017.3
20260503203905 68 255 5.0 7.0 0.00 0.00 0.00 34 1017.6
20260503203402 69 327 7.0 9.0 0.00 0.00 0.00 34 1017.7
20260503202859 68 243 4.0 5.0 0.00 0.00 0.00 34 1017.7
20260503202357 67 303 2.0 2.0 0.00 0.00 0.00 35 1017.9
20260503201855 66 250 4.0 6.0 0.00 0.00 0.00 36 1017.7
20260503201351 67 265 6.0 7.0 0.00 0.00 0.00 35 1017.9
20260503200849 66 239 1.0 1.0 0.00 0.00 0.00 36 1018.1
20260503200344 67 130 3.0 5.0 0.00 0.00 0.00 35 1018.0
20260503195842 66 171 5.0 7.0 0.00 0.00 0.00 37 1018.2
20260503195338 66 203 8.0 10.0 0.00 0.00 0.00 37 1018.4
20260503194836 65 219 5.0 7.0 0.00 0.00 0.00 39 1018.4
20260503194332 65 302 3.0 3.0 0.00 0.00 0.00 38 1018.8
20260503193828 65 203 6.0 7.0 0.00 0.00 0.00 39 1018.9
20260503193324 65 320 3.0 3.0 0.00 0.00 0.00 39 1018.7
20260503192820 63 184 4.0 7.0 0.00 0.00 0.00 41 1019.3
20260503192316 60 44 1.0 1.0 0.00 0.00 0.00 44 1019.1
20260503191812 60 285 3.0 5.0 0.00 0.00 0.00 44 1019.4
20260503191309 60 325 7.0 8.0 0.00 0.00 0.00 45 1019.3
20260503190806 62 271 10.0 11.0 0.00 0.00 0.00 41 1019.3
20260503190303 63 21 1.0 2.0 0.00 0.00 0.00 37 1019.0
20260503185800 63 226 3.0 5.0 0.00 0.00 0.00 36 1018.7
20260503185256 63 247 8.0 10.0 0.00 0.00 0.00 36 1018.8
20260503184755 63 197 3.0 3.0 0.00 0.00 0.00 37 1019.0
20260503184252 63 180 3.0 3.0 0.00 0.00 0.00 35 1019.1
20260503183748 64 206 11.0 14.0 0.00 0.00 0.00 35 1019.1
20260503183246 64 244 6.0 7.0 0.00 0.00 0.00 37 1019.5
20260503182743 64 189 3.0 3.0 0.00 0.00 0.00 36 1019.6
20260503182242 67 212 7.0 8.0 0.00 0.00 0.00 35 1019.7
20260503181738 66 255 6.0 7.0 0.00 0.00 0.00 34 1019.8
20260503181236 66 213 10.0 13.0 0.00 0.00 0.00 35 1019.9
20260503180732 65 207 7.0 9.0 0.00 0.00 0.00 35 1020.1
20260503180230 65 230 12.0 14.0 0.00 0.00 0.00 36 1020.1
20260503175726 64 231 8.0 10.0 0.00 0.00 0.00 38 1020.3
20260503175225 65 108 3.0 5.0 0.00 0.00 0.00 37 1020.4
20260503174720 64 32 1.0 2.0 0.00 0.00 0.00 38 1020.5
20260503174219 64 252 5.0 7.0 0.00 0.00 0.00 39 1020.5
20260503173713 63 201 4.0 5.0 0.00 0.00 0.00 40 1020.6
20260503173209 63 172 2.0 2.0 0.00 0.00 0.00 40 1021.0
20260503172707 64 132 3.0 3.0 0.00 0.00 0.00 39 1021.0
20260503172204 62 292 2.0 2.0 0.00 0.00 0.00 41 1020.8
20260503171700 62 214 2.0 2.0 0.00 0.00 0.00 42 1021.2
20260503171158 61 152 1.0 2.0 0.00 0.00 0.00 43 1021.2
20260503170654 61 192 2.0 3.0 0.00 0.00 0.00 42 1021.0
20260503170151 60 187 3.0 5.0 0.00 0.00 0.00 43 1021.2